"Time","Value","Approval","myLocation"
"2023-04-21 00:00",8.773,"Approved","OW310"
"2023-04-21 01:00",8.782,"Approved","OW310"
"2023-04-21 02:00",8.787,"Approved","OW310"
"2023-04-21 03:00",8.796,"Approved","OW310"
"2023-04-21 04:00",8.804,"Approved","OW310"
"2023-04-21 05:00",8.812,"Approved","OW310"
"2023-04-21 06:00",8.81,"Approved","OW310"
"2023-04-21 07:00",8.81,"Approved","OW310"
"2023-04-21 08:00",8.811,"Approved","OW310"
"2023-04-21 09:00",8.816,"Approved","OW310"
"2023-04-21 10:00",8.817,"Approved","OW310"
"2023-04-21 11:00",8.82,"Approved","OW310"
"2023-04-21 12:00",8.82,"Approved","OW310"
"2023-04-21 13:00",8.817,"Approved","OW310"
"2023-04-21 14:00",8.818,"Approved","OW310"
"2023-04-21 15:00",8.817,"Approved","OW310"
"2023-04-21 16:00",8.815,"Approved","OW310"
"2023-04-21 17:00",8.813,"Approved","OW310"
"2023-04-21 18:00",8.811,"Approved","OW310"
"2023-04-21 19:00",8.809,"Approved","OW310"
"2023-04-21 20:00",8.808,"Approved","OW310"
"2023-04-21 21:00",8.806,"Approved","OW310"
"2023-04-21 22:00",8.803,"Approved","OW310"
"2023-04-21 23:00",8.799,"Approved","OW310"
"2023-04-22 00:00",8.795,"Approved","OW310"
"2023-04-22 01:00",8.793,"Approved","OW310"
"2023-04-22 02:00",8.794,"Approved","OW310"
"2023-04-22 03:00",8.79,"Approved","OW310"
"2023-04-22 04:00",8.789,"Approved","OW310"
"2023-04-22 05:00",8.791,"Approved","OW310"
"2023-04-22 06:00",8.789,"Approved","OW310"
"2023-04-22 07:00",8.785,"Approved","OW310"
"2023-04-22 08:00",8.785,"Approved","OW310"
"2023-04-22 09:00",8.782,"Approved","OW310"
"2023-04-22 10:00",8.781,"Approved","OW310"
"2023-04-22 11:00",8.781,"Approved","OW310"
"2023-04-22 12:00",8.78,"Approved","OW310"
"2023-04-22 13:00",8.78,"Approved","OW310"
"2023-04-22 14:00",8.777,"Approved","OW310"
"2023-04-22 15:00",8.776,"Approved","OW310"
"2023-04-22 16:00",8.776,"Approved","OW310"
"2023-04-22 17:00",8.776,"Approved","OW310"
"2023-04-22 18:00",8.777,"Approved","OW310"
"2023-04-22 19:00",8.775,"Approved","OW310"
"2023-04-22 20:00",8.773,"Approved","OW310"
"2023-04-22 21:00",8.772,"Approved","OW310"
"2023-04-22 22:00",8.768,"Approved","OW310"
"2023-04-22 23:00",8.768,"Approved","OW310"
"2023-04-23 00:00",8.762,"Approved","OW310"
"2023-04-23 01:00",8.763,"Approved","OW310"
"2023-04-23 02:00",8.761,"Approved","OW310"
"2023-04-23 03:00",8.759,"Approved","OW310"
"2023-04-23 04:00",8.758,"Approved","OW310"
"2023-04-23 05:00",8.757,"Approved","OW310"
"2023-04-23 06:00",8.757,"Approved","OW310"
"2023-04-23 07:00",8.754,"Approved","OW310"
"2023-04-23 08:00",8.756,"Approved","OW310"
"2023-04-23 09:00",8.759,"Approved","OW310"
"2023-04-23 10:00",8.761,"Approved","OW310"
"2023-04-23 11:00",8.76,"Approved","OW310"
"2023-04-23 12:00",8.764,"Approved","OW310"
"2023-04-23 13:00",8.768,"Approved","OW310"
"2023-04-23 14:00",8.775,"Approved","OW310"
"2023-04-23 15:00",8.777,"Approved","OW310"
"2023-04-23 16:00",8.778,"Approved","OW310"
"2023-04-23 17:00",8.781,"Approved","OW310"
"2023-04-23 18:00",8.788,"Approved","OW310"
"2023-04-23 19:00",8.787,"Approved","OW310"
"2023-04-23 20:00",8.787,"Approved","OW310"
"2023-04-23 21:00",8.787,"Approved","OW310"
"2023-04-23 22:00",8.79,"Approved","OW310"
"2023-04-23 23:00",8.787,"Approved","OW310"
"2023-04-24 00:00",8.783,"Approved","OW310"
"2023-04-24 01:00",8.78,"Approved","OW310"
"2023-04-24 02:00",8.78,"Approved","OW310"
"2023-04-24 03:00",8.779,"Approved","OW310"
"2023-04-24 04:00",8.786,"Approved","OW310"
"2023-04-24 05:00",8.785,"Approved","OW310"
"2023-04-24 06:00",8.786,"Approved","OW310"
"2023-04-24 07:00",8.786,"Approved","OW310"
"2023-04-24 08:00",8.793,"Approved","OW310"
"2023-04-24 09:00",8.799,"Approved","OW310"
"2023-04-24 10:00",8.8,"Approved","OW310"
"2023-04-24 11:00",8.803,"Approved","OW310"
"2023-04-24 12:00",8.804,"Approved","OW310"
"2023-04-24 13:00",8.803,"Approved","OW310"
"2023-04-24 14:00",8.805,"Approved","OW310"
"2023-04-24 15:00",8.809,"Approved","OW310"
"2023-04-24 16:00",8.808,"Approved","OW310"
"2023-04-24 17:00",8.806,"Approved","OW310"
"2023-04-24 18:00",8.804,"Approved","OW310"
"2023-04-24 19:00",8.804,"Approved","OW310"
"2023-04-24 20:00",8.8,"Approved","OW310"
"2023-04-24 21:00",8.795,"Approved","OW310"
"2023-04-24 22:00",8.798,"Approved","OW310"
"2023-04-24 23:00",8.791,"Approved","OW310"
"2023-04-25 00:00",8.792,"Approved","OW310"
"2023-04-25 01:00",8.789,"Approved","OW310"
"2023-04-25 02:00",8.789,"Approved","OW310"
"2023-04-25 03:00",8.789,"Approved","OW310"
"2023-04-25 04:00",8.799,"Approved","OW310"
"2023-04-25 05:00",8.79,"Approved","OW310"
"2023-04-25 06:00",8.792,"Approved","OW310"
"2023-04-25 07:00",8.788,"Approved","OW310"
"2023-04-25 08:00",8.791,"Approved","OW310"
"2023-04-25 09:00",8.792,"Approved","OW310"
"2023-04-25 10:00",8.791,"Approved","OW310"
"2023-04-25 11:00",8.792,"Approved","OW310"
"2023-04-25 12:00",8.791,"Approved","OW310"
"2023-04-25 13:00",8.786,"Approved","OW310"
"2023-04-25 14:00",8.786,"Approved","OW310"
"2023-04-25 15:00",8.79,"Approved","OW310"
"2023-04-25 16:00",8.789,"Approved","OW310"
"2023-04-25 17:00",8.79,"Approved","OW310"
"2023-04-25 18:00",8.79,"Approved","OW310"
"2023-04-25 19:00",8.786,"Approved","OW310"
"2023-04-25 20:00",8.783,"Approved","OW310"
"2023-04-25 21:00",8.781,"Approved","OW310"
"2023-04-25 22:00",8.781,"Approved","OW310"
"2023-04-25 23:00",8.775,"Approved","OW310"
"2023-04-26 00:00",8.773,"Approved","OW310"
"2023-04-26 01:00",8.774,"Approved","OW310"
"2023-04-26 02:00",8.775,"Approved","OW310"
"2023-04-26 03:00",8.775,"Approved","OW310"
"2023-04-26 04:00",8.778,"Approved","OW310"
"2023-04-26 05:00",8.778,"Approved","OW310"
"2023-04-26 06:00",8.776,"Approved","OW310"
"2023-04-26 07:00",8.773,"Approved","OW310"
"2023-04-26 08:00",8.772,"Approved","OW310"
"2023-04-26 09:00",8.773,"Approved","OW310"
"2023-04-26 10:00",8.775,"Approved","OW310"
"2023-04-26 11:00",8.774,"Approved","OW310"
"2023-04-26 12:00",8.779,"Approved","OW310"
"2023-04-26 13:00",8.773,"Approved","OW310"
"2023-04-26 14:00",8.766,"Approved","OW310"
"2023-04-26 15:00",8.773,"Approved","OW310"
"2023-04-26 16:00",8.771,"Approved","OW310"
"2023-04-26 17:00",8.776,"Approved","OW310"
"2023-04-26 18:00",8.784,"Approved","OW310"
"2023-04-26 19:00",8.788,"Approved","OW310"
"2023-04-26 20:00",8.787,"Approved","OW310"
"2023-04-26 21:00",8.784,"Approved","OW310"
"2023-04-26 22:00",8.781,"Approved","OW310"
"2023-04-26 23:00",8.78,"Approved","OW310"
"2023-04-27 00:00",8.78,"Approved","OW310"
"2023-04-27 01:00",8.782,"Approved","OW310"
"2023-04-27 02:00",8.781,"Approved","OW310"
"2023-04-27 03:00",8.779,"Approved","OW310"
"2023-04-27 04:00",8.78,"Approved","OW310"
"2023-04-27 05:00",8.782,"Approved","OW310"
"2023-04-27 06:00",8.781,"Approved","OW310"
"2023-04-27 07:00",8.784,"Approved","OW310"
"2023-04-27 08:00",8.785,"Approved","OW310"
"2023-04-27 09:00",8.788,"Approved","OW310"
"2023-04-27 10:00",8.785,"Approved","OW310"
"2023-04-27 11:00",8.785,"Approved","OW310"
"2023-04-27 12:00",8.785,"Approved","OW310"
"2023-04-27 13:00",8.788,"Approved","OW310"
"2023-04-27 14:00",8.79,"Approved","OW310"
"2023-04-27 15:00",8.79,"Approved","OW310"
"2023-04-27 16:00",8.791,"Approved","OW310"
"2023-04-27 17:00",8.788,"Approved","OW310"
"2023-04-27 18:00",8.784,"Approved","OW310"
"2023-04-27 19:00",8.78,"Approved","OW310"
"2023-04-27 20:00",8.779,"Approved","OW310"
"2023-04-27 21:00",8.775,"Approved","OW310"
"2023-04-27 22:00",8.771,"Approved","OW310"
"2023-04-27 23:00",8.768,"Approved","OW310"
"2023-04-28 00:00",8.764,"Approved","OW310"
"2023-04-28 01:00",8.76,"Approved","OW310"
"2023-04-28 02:00",8.758,"Approved","OW310"
"2023-04-28 03:00",8.761,"Approved","OW310"
"2023-04-28 04:00",8.767,"Approved","OW310"
"2023-04-28 05:00",8.768,"Approved","OW310"
"2023-04-28 06:00",8.768,"Approved","OW310"
"2023-04-28 07:00",8.769,"Approved","OW310"
"2023-04-28 08:00",8.769,"Approved","OW310"
"2023-04-28 09:00",8.772,"Approved","OW310"
"2023-04-28 10:00",8.771,"Approved","OW310"
"2023-04-28 11:00",8.768,"Approved","OW310"
"2023-04-28 12:00",8.768,"Approved","OW310"
"2023-04-28 13:00",8.77,"Approved","OW310"
"2023-04-28 14:00",8.77,"Approved","OW310"
"2023-04-28 15:00",8.772,"Approved","OW310"
"2023-04-28 16:00",8.771,"Approved","OW310"
"2023-04-28 17:00",8.767,"Approved","OW310"
"2023-04-28 18:00",8.765,"Approved","OW310"
"2023-04-28 19:00",8.761,"Approved","OW310"
"2023-04-28 20:00",8.758,"Approved","OW310"
"2023-04-28 21:00",8.754,"Approved","OW310"
"2023-04-28 22:00",8.753,"Approved","OW310"
"2023-04-28 23:00",8.751,"Approved","OW310"
"2023-04-29 00:00",8.749,"Approved","OW310"
"2023-04-29 01:00",8.748,"Approved","OW310"
"2023-04-29 02:00",8.749,"Approved","OW310"
"2023-04-29 03:00",8.753,"Approved","OW310"
"2023-04-29 04:00",8.757,"Approved","OW310"
"2023-04-29 05:00",8.762,"Approved","OW310"
"2023-04-29 06:00",8.763,"Approved","OW310"
"2023-04-29 07:00",8.765,"Approved","OW310"
"2023-04-29 08:00",8.769,"Approved","OW310"
"2023-04-29 09:00",8.769,"Approved","OW310"
"2023-04-29 10:00",8.77,"Approved","OW310"
"2023-04-29 11:00",8.775,"Approved","OW310"
"2023-04-29 12:00",8.775,"Approved","OW310"
"2023-04-29 13:00",8.775,"Approved","OW310"
"2023-04-29 14:00",8.779,"Approved","OW310"
"2023-04-29 15:00",8.78,"Approved","OW310"
"2023-04-29 16:00",8.779,"Approved","OW310"
"2023-04-29 17:00",8.776,"Approved","OW310"
"2023-04-29 18:00",8.773,"Approved","OW310"
"2023-04-29 19:00",8.772,"Approved","OW310"
"2023-04-29 20:00",8.77,"Approved","OW310"
"2023-04-29 21:00",8.767,"Approved","OW310"
"2023-04-29 22:00",8.764,"Approved","OW310"
"2023-04-29 23:00",8.76,"Approved","OW310"
"2023-04-30 00:00",8.756,"Approved","OW310"
"2023-04-30 01:00",8.756,"Approved","OW310"
"2023-04-30 02:00",8.755,"Approved","OW310"
"2023-04-30 03:00",8.759,"Approved","OW310"
"2023-04-30 04:00",8.763,"Approved","OW310"
"2023-04-30 05:00",8.765,"Approved","OW310"
"2023-04-30 06:00",8.765,"Approved","OW310"
"2023-04-30 07:00",8.765,"Approved","OW310"
"2023-04-30 08:00",8.764,"Approved","OW310"
"2023-04-30 09:00",8.763,"Approved","OW310"
"2023-04-30 10:00",8.764,"Approved","OW310"
"2023-04-30 11:00",8.764,"Approved","OW310"
"2023-04-30 12:00",8.768,"Approved","OW310"
"2023-04-30 13:00",8.768,"Approved","OW310"
"2023-04-30 14:00",8.771,"Approved","OW310"
"2023-04-30 15:00",8.776,"Approved","OW310"
"2023-04-30 16:00",8.777,"Approved","OW310"
"2023-04-30 17:00",8.78,"Approved","OW310"
"2023-04-30 18:00",8.779,"Approved","OW310"
"2023-04-30 19:00",8.777,"Approved","OW310"
"2023-04-30 20:00",8.778,"Approved","OW310"
"2023-04-30 21:00",8.775,"Approved","OW310"
"2023-04-30 22:00",8.775,"Approved","OW310"
"2023-04-30 23:00",8.772,"Approved","OW310"
"2023-05-01 00:00",8.769,"Approved","OW310"
"2023-05-01 01:00",8.772,"Approved","OW310"
"2023-05-01 02:00",8.77,"Approved","OW310"
"2023-05-01 03:00",8.77,"Approved","OW310"
"2023-05-01 04:00",8.771,"Approved","OW310"
"2023-05-01 05:00",8.771,"Approved","OW310"
"2023-05-01 06:00",8.772,"Approved","OW310"
"2023-05-01 07:00",8.774,"Approved","OW310"
"2023-05-01 08:00",8.776,"Approved","OW310"
"2023-05-01 09:00",8.775,"Approved","OW310"
"2023-05-01 10:00",8.775,"Approved","OW310"
"2023-05-01 11:00",8.774,"Approved","OW310"
"2023-05-01 12:00",8.775,"Approved","OW310"
"2023-05-01 13:00",8.776,"Approved","OW310"
"2023-05-01 14:00",8.773,"Approved","OW310"
"2023-05-01 15:00",8.774,"Approved","OW310"
"2023-05-01 16:00",8.775,"Approved","OW310"
"2023-05-01 17:00",8.77,"Approved","OW310"
"2023-05-01 18:00",8.767,"Approved","OW310"
"2023-05-01 19:00",8.766,"Approved","OW310"
"2023-05-01 20:00",8.763,"Approved","OW310"
"2023-05-01 21:00",8.762,"Approved","OW310"
"2023-05-01 22:00",8.76,"Approved","OW310"
"2023-05-01 23:00",8.76,"Approved","OW310"
"2023-05-02 00:00",8.759,"Approved","OW310"
"2023-05-02 01:00",8.761,"Approved","OW310"
"2023-05-02 02:00",8.762,"Approved","OW310"
"2023-05-02 03:00",8.767,"Approved","OW310"
"2023-05-02 04:00",8.771,"Approved","OW310"
"2023-05-02 05:00",8.77,"Approved","OW310"
"2023-05-02 06:00",8.772,"Approved","OW310"
"2023-05-02 07:00",8.772,"Approved","OW310"
"2023-05-02 08:00",8.768,"Approved","OW310"
"2023-05-02 09:00",8.769,"Approved","OW310"
"2023-05-02 10:00",8.775,"Approved","OW310"
"2023-05-02 11:00",8.772,"Approved","OW310"
"2023-05-02 12:00",8.771,"Approved","OW310"
"2023-05-02 13:00",8.767,"Approved","OW310"
"2023-05-02 14:00",8.765,"Approved","OW310"
"2023-05-02 15:00",8.763,"Approved","OW310"
"2023-05-02 16:00",8.762,"Approved","OW310"
"2023-05-02 17:00",8.761,"Approved","OW310"
"2023-05-02 18:00",8.759,"Approved","OW310"
"2023-05-02 19:00",8.754,"Approved","OW310"
"2023-05-02 20:00",8.755,"Approved","OW310"
"2023-05-02 21:00",8.754,"Approved","OW310"
"2023-05-02 22:00",8.752,"Approved","OW310"
"2023-05-02 23:00",8.75,"Approved","OW310"
"2023-05-03 00:00",8.751,"Approved","OW310"
"2023-05-03 01:00",8.754,"Approved","OW310"
"2023-05-03 02:00",8.758,"Approved","OW310"
"2023-05-03 03:00",8.764,"Approved","OW310"
"2023-05-03 04:00",8.771,"Approved","OW310"
"2023-05-03 05:00",8.776,"Approved","OW310"
"2023-05-03 06:00",8.783,"Approved","OW310"
"2023-05-03 07:00",8.785,"Approved","OW310"
"2023-05-03 08:00",8.79,"Approved","OW310"
"2023-05-03 09:00",8.788,"Approved","OW310"
"2023-05-04 10:00",8.78,"Approved","OW310"
"2023-05-04 11:00",8.782,"Approved","OW310"
"2023-05-04 12:00",8.783,"Approved","OW310"
"2023-05-04 13:00",8.776,"Approved","OW310"
"2023-05-04 14:00",8.776,"Approved","OW310"
"2023-05-04 15:00",8.771,"Approved","OW310"
"2023-05-04 16:00",8.766,"Approved","OW310"
"2023-05-04 17:00",8.762,"Approved","OW310"
"2023-05-04 18:00",8.763,"Approved","OW310"
"2023-05-04 19:00",8.762,"Approved","OW310"
"2023-05-04 20:00",8.76,"Approved","OW310"
"2023-05-04 21:00",8.757,"Approved","OW310"
"2023-05-04 22:00",8.752,"Approved","OW310"
"2023-05-04 23:00",8.749,"Approved","OW310"
"2023-05-05 00:00",8.75,"Approved","OW310"
"2023-05-05 01:00",8.751,"Approved","OW310"
"2023-05-05 02:00",8.755,"Approved","OW310"
"2023-05-05 03:00",8.763,"Approved","OW310"
"2023-05-05 04:00",8.766,"Approved","OW310"
"2023-05-05 05:00",8.776,"Approved","OW310"
"2023-05-05 06:00",8.779,"Approved","OW310"
"2023-05-05 07:00",8.777,"Approved","OW310"
"2023-05-05 08:00",8.788,"Approved","OW310"
"2023-05-05 09:00",8.782,"Approved","OW310"
"2023-05-05 10:00",8.777,"Approved","OW310"
"2023-05-05 11:00",8.777,"Approved","OW310"
"2023-05-05 12:00",8.777,"Approved","OW310"
"2023-05-05 13:00",8.777,"Approved","OW310"
"2023-05-05 14:00",8.781,"Approved","OW310"
"2023-05-05 15:00",8.783,"Approved","OW310"
"2023-05-05 16:00",8.782,"Approved","OW310"
"2023-05-05 17:00",8.781,"Approved","OW310"
"2023-05-05 18:00",8.783,"Approved","OW310"
"2023-05-05 19:00",8.781,"Approved","OW310"
"2023-05-05 20:00",8.782,"Approved","OW310"
"2023-05-05 21:00",8.785,"Approved","OW310"
"2023-05-05 22:00",8.785,"Approved","OW310"
"2023-05-05 23:00",8.783,"Approved","OW310"
"2023-05-06 00:00",8.784,"Approved","OW310"
"2023-05-06 01:00",8.784,"Approved","OW310"
"2023-05-06 02:00",8.783,"Approved","OW310"
"2023-05-06 03:00",8.785,"Approved","OW310"
"2023-05-06 04:00",8.785,"Approved","OW310"
"2023-05-06 05:00",8.786,"Approved","OW310"
"2023-05-06 06:00",8.783,"Approved","OW310"
"2023-05-06 07:00",8.782,"Approved","OW310"
"2023-05-06 08:00",8.78,"Approved","OW310"
"2023-05-06 09:00",8.78,"Approved","OW310"
"2023-05-06 10:00",8.777,"Approved","OW310"
"2023-05-06 11:00",8.777,"Approved","OW310"
"2023-05-06 12:00",8.778,"Approved","OW310"
"2023-05-06 13:00",8.775,"Approved","OW310"
"2023-05-06 14:00",8.776,"Approved","OW310"
"2023-05-06 15:00",8.778,"Approved","OW310"
"2023-05-06 16:00",8.779,"Approved","OW310"
"2023-05-06 17:00",8.779,"Approved","OW310"
"2023-05-06 18:00",8.779,"Approved","OW310"
"2023-05-06 19:00",8.778,"Approved","OW310"
"2023-05-06 20:00",8.776,"Approved","OW310"
"2023-05-06 21:00",8.774,"Approved","OW310"
"2023-05-06 22:00",8.774,"Approved","OW310"
"2023-05-06 23:00",8.777,"Approved","OW310"
"2023-05-07 00:00",8.779,"Approved","OW310"
"2023-05-07 01:00",8.78,"Approved","OW310"
"2023-05-07 02:00",8.78,"Approved","OW310"
"2023-05-07 03:00",8.78,"Approved","OW310"
"2023-05-07 04:00",8.782,"Approved","OW310"
"2023-05-07 05:00",8.782,"Approved","OW310"
"2023-05-07 06:00",8.783,"Approved","OW310"
"2023-05-07 07:00",8.781,"Approved","OW310"
"2023-05-07 08:00",8.781,"Approved","OW310"
"2023-05-07 09:00",8.782,"Approved","OW310"
"2023-05-07 10:00",8.783,"Approved","OW310"
"2023-05-07 11:00",8.782,"Approved","OW310"
"2023-05-07 12:00",8.782,"Approved","OW310"
"2023-05-07 13:00",8.782,"Approved","OW310"
"2023-05-07 14:00",8.784,"Approved","OW310"
"2023-05-07 15:00",8.786,"Approved","OW310"
"2023-05-07 16:00",8.786,"Approved","OW310"
"2023-05-07 17:00",8.784,"Approved","OW310"
"2023-05-07 18:00",8.782,"Approved","OW310"
"2023-05-07 19:00",8.781,"Approved","OW310"
"2023-05-07 20:00",8.781,"Approved","OW310"
"2023-05-07 21:00",8.781,"Approved","OW310"
"2023-05-07 22:00",8.782,"Approved","OW310"
"2023-05-07 23:00",8.779,"Approved","OW310"
"2023-05-08 00:00",8.778,"Approved","OW310"
"2023-05-08 01:00",8.776,"Approved","OW310"
"2023-05-08 02:00",8.774,"Approved","OW310"
"2023-05-08 03:00",8.775,"Approved","OW310"
"2023-05-08 04:00",8.778,"Approved","OW310"
"2023-05-08 05:00",8.781,"Approved","OW310"
"2023-05-08 06:00",8.782,"Approved","OW310"
"2023-05-08 07:00",8.782,"Approved","OW310"
"2023-05-08 08:00",8.781,"Approved","OW310"
"2023-05-08 09:00",8.781,"Approved","OW310"
"2023-05-08 10:00",8.78,"Approved","OW310"
"2023-05-08 11:00",8.78,"Approved","OW310"
"2023-05-08 12:00",8.778,"Approved","OW310"
"2023-05-08 13:00",8.78,"Approved","OW310"
"2023-05-08 14:00",8.781,"Approved","OW310"
"2023-05-08 15:00",8.781,"Approved","OW310"
"2023-05-08 16:00",8.779,"Approved","OW310"
"2023-05-08 17:00",8.779,"Approved","OW310"
"2023-05-08 18:00",8.777,"Approved","OW310"
"2023-05-08 19:00",8.777,"Approved","OW310"
"2023-05-08 20:00",8.776,"Approved","OW310"
"2023-05-08 21:00",8.774,"Approved","OW310"
"2023-05-08 22:00",8.774,"Approved","OW310"
"2023-05-08 23:00",8.773,"Approved","OW310"
"2023-05-09 00:00",8.773,"Approved","OW310"
"2023-05-09 01:00",8.776,"Approved","OW310"
"2023-05-09 02:00",8.777,"Approved","OW310"
"2023-05-09 03:00",8.779,"Approved","OW310"
"2023-05-09 04:00",8.782,"Approved","OW310"
"2023-05-09 05:00",8.786,"Approved","OW310"
"2023-05-09 06:00",8.788,"Approved","OW310"
"2023-05-09 07:00",8.789,"Approved","OW310"
"2023-05-09 08:00",8.791,"Approved","OW310"
"2023-05-09 09:00",8.792,"Approved","OW310"
"2023-05-09 10:00",8.794,"Approved","OW310"
"2023-05-09 11:00",8.796,"Approved","OW310"
"2023-05-09 12:00",8.795,"Approved","OW310"
"2023-05-09 13:00",8.795,"Approved","OW310"
"2023-05-09 14:00",8.796,"Approved","OW310"
"2023-05-09 15:00",8.798,"Approved","OW310"
"2023-05-09 16:00",8.795,"Approved","OW310"
"2023-05-09 17:00",8.791,"Approved","OW310"
"2023-05-09 18:00",8.79,"Approved","OW310"
"2023-05-09 19:00",8.787,"Approved","OW310"
"2023-05-09 20:00",8.786,"Approved","OW310"
"2023-05-09 21:00",8.783,"Approved","OW310"
"2023-05-09 22:00",8.783,"Approved","OW310"
"2023-05-09 23:00",8.782,"Approved","OW310"
"2023-05-10 00:00",8.78,"Approved","OW310"
"2023-05-10 01:00",8.779,"Approved","OW310"
"2023-05-10 02:00",8.781,"Approved","OW310"
"2023-05-10 03:00",8.784,"Approved","OW310"
"2023-05-10 04:00",8.788,"Approved","OW310"
"2023-05-10 05:00",8.79,"Approved","OW310"
"2023-05-10 06:00",8.786,"Approved","OW310"
"2023-05-10 07:00",8.787,"Approved","OW310"
"2023-05-10 08:00",8.787,"Approved","OW310"
"2023-05-10 09:00",8.785,"Approved","OW310"
"2023-05-10 10:00",8.786,"Approved","OW310"
"2023-05-10 11:00",8.786,"Approved","OW310"
"2023-05-10 12:00",8.785,"Approved","OW310"
"2023-05-10 13:00",8.784,"Approved","OW310"
"2023-05-10 14:00",8.786,"Approved","OW310"
"2023-05-10 15:00",8.788,"Approved","OW310"
"2023-05-10 16:00",8.787,"Approved","OW310"
"2023-05-10 17:00",8.785,"Approved","OW310"
"2023-05-10 18:00",8.785,"Approved","OW310"
"2023-05-10 19:00",8.784,"Approved","OW310"
"2023-05-10 20:00",8.782,"Approved","OW310"
"2023-05-10 21:00",8.78,"Approved","OW310"
"2023-05-10 22:00",8.779,"Approved","OW310"
"2023-05-10 23:00",8.778,"Approved","OW310"
"2023-05-11 00:00",8.777,"Approved","OW310"
"2023-05-11 01:00",8.778,"Approved","OW310"
"2023-05-11 02:00",8.779,"Approved","OW310"
"2023-05-11 03:00",8.783,"Approved","OW310"
"2023-05-11 04:00",8.788,"Approved","OW310"
"2023-05-11 05:00",8.792,"Approved","OW310"
"2023-05-11 06:00",8.792,"Approved","OW310"
"2023-05-11 07:00",8.793,"Approved","OW310"
"2023-05-11 08:00",8.797,"Approved","OW310"
"2023-05-11 09:00",8.799,"Approved","OW310"
"2023-05-11 10:00",8.797,"Approved","OW310"
"2023-05-11 11:00",8.799,"Approved","OW310"
"2023-05-11 12:00",8.799,"Approved","OW310"
"2023-05-11 13:00",8.799,"Approved","OW310"
"2023-05-11 14:00",8.801,"Approved","OW310"
"2023-05-11 15:00",8.803,"Approved","OW310"
"2023-05-11 16:00",8.803,"Approved","OW310"
"2023-05-11 17:00",8.8,"Approved","OW310"
"2023-05-11 18:00",8.798,"Approved","OW310"
"2023-05-11 19:00",8.796,"Approved","OW310"
"2023-05-11 20:00",8.793,"Approved","OW310"
"2023-05-11 21:00",8.792,"Approved","OW310"
"2023-05-11 22:00",8.788,"Approved","OW310"
"2023-05-11 23:00",8.786,"Approved","OW310"
"2023-05-12 00:00",8.786,"Approved","OW310"
"2023-05-12 01:00",8.787,"Approved","OW310"
"2023-05-12 02:00",8.788,"Approved","OW310"
"2023-05-12 03:00",8.791,"Approved","OW310"
"2023-05-12 04:00",8.792,"Approved","OW310"
"2023-05-12 05:00",8.796,"Approved","OW310"
"2023-05-12 06:00",8.797,"Approved","OW310"
"2023-05-12 07:00",8.798,"Approved","OW310"
"2023-05-12 08:00",8.801,"Approved","OW310"
"2023-05-12 09:00",8.802,"Approved","OW310"
"2023-05-12 10:00",8.803,"Approved","OW310"
"2023-05-12 11:00",8.802,"Approved","OW310"
"2023-05-12 12:00",8.804,"Approved","OW310"
"2023-05-12 13:00",8.805,"Approved","OW310"
"2023-05-12 14:00",8.806,"Approved","OW310"
"2023-05-12 15:00",8.808,"Approved","OW310"
"2023-05-12 16:00",8.81,"Approved","OW310"
"2023-05-12 17:00",8.806,"Approved","OW310"
"2023-05-12 18:00",8.803,"Approved","OW310"
"2023-05-12 19:00",8.801,"Approved","OW310"
"2023-05-12 20:00",8.8,"Approved","OW310"
"2023-05-12 21:00",8.798,"Approved","OW310"
"2023-05-12 22:00",8.795,"Approved","OW310"
"2023-05-12 23:00",8.793,"Approved","OW310"
"2023-05-13 00:00",8.792,"Approved","OW310"
"2023-05-13 01:00",8.793,"Approved","OW310"
"2023-05-13 02:00",8.793,"Approved","OW310"
"2023-05-13 03:00",8.794,"Approved","OW310"
"2023-05-13 04:00",8.796,"Approved","OW310"
"2023-05-13 05:00",8.799,"Approved","OW310"
"2023-05-13 06:00",8.803,"Approved","OW310"
"2023-05-13 07:00",8.806,"Approved","OW310"
"2023-05-13 08:00",8.807,"Approved","OW310"
"2023-05-13 09:00",8.809,"Approved","OW310"
"2023-05-13 10:00",8.806,"Approved","OW310"
"2023-05-13 11:00",8.807,"Approved","OW310"
"2023-05-13 12:00",8.807,"Approved","OW310"
"2023-05-13 13:00",8.809,"Approved","OW310"
"2023-05-13 14:00",8.808,"Approved","OW310"
"2023-05-13 15:00",8.808,"Approved","OW310"
"2023-05-13 16:00",8.807,"Approved","OW310"
"2023-05-13 17:00",8.807,"Approved","OW310"
"2023-05-13 18:00",8.804,"Approved","OW310"
"2023-05-13 19:00",8.802,"Approved","OW310"
"2023-05-13 20:00",8.798,"Approved","OW310"
"2023-05-13 21:00",8.797,"Approved","OW310"
"2023-05-13 22:00",8.793,"Approved","OW310"
"2023-05-13 23:00",8.789,"Approved","OW310"
"2023-05-14 00:00",8.787,"Approved","OW310"
"2023-05-14 01:00",8.784,"Approved","OW310"
"2023-05-14 02:00",8.786,"Approved","OW310"
"2023-05-14 03:00",8.788,"Approved","OW310"
"2023-05-14 04:00",8.792,"Approved","OW310"